Temperature
18 18 18 18 18 18 18 18 18 18 18 18 18 18 18 18 18 18 18 18 18 18 18 18 18 18 18 18 18 18 18 18 18 18 18 18 18 18 18 18 18 18 18
18 18 18 18 17 17 18 18 17 17 18 18 18 18 18 18 18 18 18 18 18 18 18 18 18 18 18 18 18 18 18 18 18 18 18 18 18 18 18 18 18 18 18
18 18 18 18 17 17 17 17 17 18 18 18 18 18 18 17 17 17 18 18 18 18 18 18 18 18 18 18 18 18 18 18 18 18 18 18 18 18 18 18 18 18 18
18 17 18 17 17 17 17 17 17 18 18 18 18 17 17 17 17 17 17 17 17 18 18 18 18 18 18 18 18 18 18 18 18 17 17 17 17 18 18 18 18 18 18
18 18 18 17 17 17 17 17 17 17 17 17 17 17 17 17 17 17 17 17 17 17 17 17 17 17 18 18 18 18 18 18 17 17 17 17 17 17 17 17 17 17 18
18 18 18 18 17 17 17 17 17 17 17 17 17 17 17 17 17 17 17 17 17 17 17 17 17 17 17 17 17 17 17 17 17 17 17 17 17 17 17 17 17 17 17
18 18 18 18 17 17 17 17 17 17 17 17 17 17 17 17 17 17 17 17 17 17 17 17 17 17 17 17 17 17 17 17 17 17 17 17 17 17 17 17 17 17 17
18 18 18 18 17 17 17 17 17 17 17 17 17 17 17 17 17 17 17 17 17 17 17 17 17 17 17 17 17 17 17 17 17 17 17 16 17 17 17 17 17 17 17
18 18 18 18 17 17 17 17 17 17 17 17 17 17 17 17 17 17 17 17 17 17 17 17 17 17 17 17 17 17 17 16 16 16 16 16 16 16 17 17 17 17 17
18 18 17 17 17 17 17 17 17 17 17 17 17 17 17 17 17 17 17 16 16 16 16 17 17 16 16 16 16 16 16 16 16 16 16 16 16 16 16 16 16 16 16
18 18 17 17 17 17 17 17 17 17 17 17 17 17 17 16 16 16 16 16 16 16 16 16 16 16 16 16 16 16 16 16 16 16 16 16 16 16 16 16 16 16 16
18 18 17 17 17 17 17 17 17 17 16 17 16 16 16 16 16 16 16 16 16 16 16 16 16 16 16 16 16 16 16 16 16 16 16 16 16 16 16 16 16 16 16
18 18 17 17 17 17 17 17 17 16 16 16 16 16 16 16 16 16 16 16 16 16 16 16 16 16 16 16 16 16 15 15 15 15 15 15 16 16 16 15 15 15 15
18 18 17 17 17 17 17 17 17 17 16 16 16 16 16 16 16 16 16 16 15 15 16 16 16 15 15 15 15 15 15 15 15 15 15 15 15 15 15 15 15 15 15
18 18 17 17 17 17 17 17 17 16 16 16 16 16 16 16 16 16 16 15 15 15 15 15 15 15 15 15 15 15 15 15 15 15 15 15 15 15 15 15 15 15 15
18 17 17 17 17 17 17 17 17 16 16 16 16 16 16 16 16 16 16 15 15 15 15 15 15 15 15 15 15 15 15 15 14 14 14 15 15 15 15 15 15 15 15
18 17 17 17 17 17 17 16 16 16 16 16 16 16 16 16 16 16 15 15 15 15 15 15 15 15 15 15 15 15 15 14 14 14 14 14 14 14 14 15 15 15 15
18 17 17 17 17 16 16 16 16 16 16 16 16 16 16 16 16 15 15 15 15 15 15 15 15 15 15 15 15 15 14 14 14 14 14 14 14 14 14 14 14 14 14
17 17 17 17 16 16 16 16 16 16 16 16 16 16 16 16 16 15 15 15 15 15 15 15 15 15 15 15 15 15 14 14 14 14 14 14 14 14 14 14 14 14 14
17 17 16 16 16 16 16 16 16 16 16 16 16 16 16 15 15 15 15 15 15 15 15 14 14 14 14 14 14 14 14 14 14 14 14 14 14 14 14 14 14 14 14
17 17 16 16 16 16 16 15 15 15 15 15 15 15 15 15 15 15 15 15 15 14 14 14 14 14 14 14 14 14 14 14 14 14 14 13 13 13 13 13 13 13 13
17 16 16 16 16 16 15 15 15 15 15 15 15 15 15 15 15 15 15 15 14 14 14 14 14 14 14 14 14 14 14 14 14 14 13 13 13 13 13 13 13 13 13
17 16 16 16 16 16 15 15 15 15 15 15 15 15 15 15 15 15 14 14 14 14 14 14 14 14 14 14 14 14 14 14 13 13 13 13 13 13 13 13 13 13 13
17 16 16 16 16 15 15 15 15 15 15 15 15 15 15 15 15 14 14 14 14 14 14 14 14 14 14 14 14 14 14 14 13 13 13 13 13 13 13 13 13 13 13
16 16 16 16 16 15 15 15 15 15 15 14 14 14 14 14 14 14 14 14 14 14 14 14 14 14 14 14 14 14 14 14 13 13 13 12 13 12 12 13 13 12 12
16 16 16 16 15 15 15 15 15 15 15 14 14 14 14 14 14 14 14 14 14 14 14 14 14 14 14 13 13 13 13 13 13 13 12 12 12 12 12 12 12 12 12
Wind_Speed
5 8 11 11 11 12 12 13 13 12 13 13 12 11 11 11 11 11 12 12 12 12 12 12 12 11 11 10 9 10 10 10 11 11 10 9 9 8 7 6 7 7 10
7 9 11 10 11 11 12 12 12 12 13 13 12 12 12 12 12 12 12 12 12 12 12 12 12 12 12 12 11 10 10 10 10 9 9 8 9 8 8 8 8 8 9
8 9 10 10 11 11 12 12 12 12 13 13 14 14 13 13 13 13 13 13 13 12 12 13 13 13 12 12 12 12 10 9 9 8 8 8 9 10 9 9 9 9 9
9 10 11 10 11 12 12 13 13 13 13 14 14 15 14 13 13 14 14 13 13 12 13 13 13 12 12 12 12 11 10 9 8 8 9 9 9 10 9 9 9 9 9
10 12 11 11 11 12 13 13 13 14 14 15 14 14 14 14 13 14 14 13 13 12 12 13 12 12 12 11 11 11 10 9 9 9 9 10 9 9 9 8 8 8 9
9 12 11 11 12 12 13 13 13 14 15 15 15 15 14 14 14 14 14 13 13 13 13 13 12 12 12 11 11 11 10 9 8 8 9 10 9 9 8 9 9 8 8
9 11 12 12 13 13 13 13 14 14 15 15 15 15 14 14 14 13 13 14 14 14 14 13 13 13 12 11 11 10 9 8 7 8 9 10 9 9 9 8 8 8 8
9 10 11 13 12 13 13 14 14 15 15 14 14 14 14 13 13 14 14 14 14 14 14 13 13 12 12 11 10 10 10 9 9 9 9 9 10 10 9 8 8 8 8
8 8 9 11 11 12 12 13 13 13 13 13 13 13 13 13 13 13 14 14 13 12 13 12 12 11 11 10 9 9 9 10 8 7 9 10 11 11 10 9 9 8 8
6 6 7 9 11 10 10 11 11 11 10 10 10 10 11 11 12 12 13 13 12 12 12 11 11 10 10 9 7 7 8 8 9 10 10 11 12 12 11 10 10 10 9
6 5 6 7 8 9 9 10 9 8 7 7 7 7 7 7 8 10 11 12 11 11 10 9 8 8 8 7 7 7 7 8 10 10 11 13 13 12 11 11 11 10 10
5 4 4 6 6 7 7 7 6 6 5 4 5 5 6 7 8 9 9 10 9 9 8 6 6 5 5 5 6 7 7 9 10 10 11 14 13 12 12 12 11 11 10
5 4 4 5 6 6 5 4 4 4 4 5 6 6 7 7 6 6 5 6 6 5 4 4 3 3 5 6 7 7 9 9 10 10 12 13 13 12 11 11 11 11 11
5 4 4 4 4 5 5 3 4 3 3 3 4 6 5 4 3 3 3 4 4 4 4 4 4 6 7 7 7 8 9 8 9 10 11 14 14 13 12 12 12 11 11
5 4 4 4 4 4 5 3 4 3 3 4 4 4 6 4 3 3 4 5 6 5 5 4 6 7 6 7 8 9 8 9 10 10 10 14 14 13 12 12 11 11 11
4 4 3 3 3 4 4 3 3 3 4 4 4 4 6 5 4 4 4 5 5 5 5 5 6 5 4 5 7 8 7 7 8 8 9 10 13 13 13 12 12 11 11
4 4 3 3 3 4 3 4 3 4 4 3 3 4 6 6 5 5 4 4 4 5 6 6 6 5 5 5 5 6 6 6 6 7 7 8 8 11 13 13 13 12 11
5 4 3 3 4 4 3 4 3 4 4 4 4 5 6 6 7 6 4 3 5 6 4 4 4 4 4 4 4 4 4 4 5 6 6 7 7 8 10 12 13 12 12
5 5 4 4 4 4 3 3 3 4 4 4 4 5 5 6 7 6 4 3 5 4 3 4 4 4 4 4 3 3 3 3 4 6 6 7 8 8 8 9 11 11 12
4 5 5 4 4 4 3 2 2 3 3 4 4 5 6 6 7 5 3 4 5 4 4 3 4 3 2 2 4 4 3 3 4 5 5 6 7 7 7 7 7 9 11
4 5 5 4 3 3 2 2 2 2 2 3 3 5 4 5 5 4 3 4 4 3 3 3 3 3 2 2 3 3 3 4 5 4 4 5 5 6 6 6 7 7 8
4 5 4 3 4 4 3 2 2 3 2 2 2 3 3 4 5 3 4 3 3 3 3 4 3 2 1 1 1 1 1 3 3 4 3 3 4 5 5 6 7 7 8
4 4 4 3 4 5 4 2 2 2 2 2 2 1 2 3 4 3 3 3 2 2 2 2 2 2 1 2 2 1 1 1 1 2 3 3 3 3 4 5 7 8 8
4 4 4 3 4 5 5 3 3 3 2 1 1 1 1 2 3 3 3 2 2 2 2 1 2 1 1 1 2 2 2 1 1 1 2 2 3 3 3 4 6 6 7
4 3 3 4 4 4 4 3 3 2 2 1 2 2 1 1 2 2 2 2 2 2 2 2 3 2 1 1 1 1 2 2 1 2 0 1 3 3 2 3 4 5 7
4 4 3 3 4 4 4 3 3 2 2 2 2 1 1 1 1 1 1 1 1 2 2 2 2 2 2 2 2 2 1 1 1 1 1 0 1 1 2 2 3 4 5
Wind_Direction
66 68 53 48 48 49 49 47 48 52 56 59 58 62 69 72 74 78 78 76 77 79 78 79 78 79 78 78 81 82 88 92 91 92 90 90 91 88 88 87 83 83 89
79 74 62 55 51 51 52 53 52 53 57 59 59 65 72 74 76 76 76 75 76 79 79 78 78 80 79 76 76 81 90 97 96 93 94 92 91 86 84 81 81 83 89
79 78 70 62 55 54 56 56 56 56 57 59 60 69 74 74 76 76 74 74 75 78 79 79 78 79 79 76 75 77 81 90 88 85 86 93 90 84 83 84 84 84 86
76 77 74 72 63 60 60 60 59 58 60 62 64 69 72 74 75 76 76 76 76 77 78 78 78 78 77 75 75 75 76 77 77 74 71 76 80 80 81 82 83 84 84
79 80 80 79 71 66 63 62 62 61 63 64 65 70 72 74 76 78 77 76 76 77 79 80 80 78 77 74 71 70 70 69 68 73 73 76 74 78 79 79 79 82 83
88 88 91 86 80 73 67 64 64 65 65 66 66 70 73 75 76 78 79 78 78 78 80 82 82 79 77 72 69 67 66 65 65 73 77 76 73 77 80 79 78 74 74
91 93 97 94 87 81 75 70 68 68 67 67 67 69 73 76 76 77 78 79 80 80 81 83 82 79 75 71 68 65 64 65 67 75 77 77 77 79 78 77 75 71 71
93 99 102 104 96 89 84 77 73 71 70 69 68 68 69 72 76 79 79 80 80 81 82 83 81 78 74 71 66 60 56 64 68 70 71 74 78 78 75 72 69 67 69
97 104 113 114 106 97 91 86 79 75 73 72 72 71 73 74 76 78 79 79 79 81 83 81 78 75 73 71 66 59 55 56 57 64 72 69 72 72 73 70 66 62 66
96 101 108 115 115 109 102 97 91 85 80 78 77 75 75 76 80 80 80 81 80 81 86 84 82 78 74 70 65 58 56 56 62 63 68 68 69 69 67 65 63 62 65
89 93 103 103 110 112 109 107 111 103 92 89 85 81 86 87 87 86 86 89 88 86 88 89 89 87 80 72 62 53 57 67 70 66 67 68 67 67 66 64 63 63 64
92 85 97 101 103 104 100 113 118 112 112 104 99 101 86 83 82 85 94 102 102 99 95 96 91 85 83 79 63 55 63 67 70 68 67 68 66 66 66 64 62 62 63
101 93 88 93 97 99 96 102 100 97 97 85 73 74 79 81 89 96 104 110 115 113 100 97 98 73 75 75 69 66 65 68 70 67 67 67 64 64 64 62 62 61 60
106 102 85 81 93 103 101 99 101 96 79 79 78 76 76 69 64 78 91 102 95 72 61 68 72 62 65 73 77 73 69 75 78 74 70 67 64 61 60 59 60 61 58
112 102 91 82 78 80 81 81 89 87 85 84 75 79 83 80 70 68 77 73 75 72 67 61 66 61 55 56 63 68 69 72 81 78 75 70 66 61 59 57 57 57 56
123 112 102 88 83 86 93 92 83 85 81 75 72 71 79 79 74 71 71 66 67 65 70 73 79 67 64 64 62 64 68 71 83 86 86 77 69 65 60 58 55 54 57
121 111 114 112 100 85 85 85 86 90 85 74 69 67 73 76 78 76 76 75 76 69 64 66 68 68 64 65 63 65 68 66 75 78 85 88 79 67 63 61 57 56 57
118 111 104 108 92 85 73 77 76 85 84 73 62 57 66 70 73 70 70 75 78 73 69 68 65 61 61 60 60 61 68 69 73 71 72 78 81 77 73 66 61 57 56
103 111 106 96 97 94 90 82 75 78 79 75 70 58 53 64 69 71 64 65 75 77 72 65 66 67 64 61 64 69 61 58 65 70 65 66 70 76 80 73 63 58 55
104 106 105 95 106 106 93 86 78 74 73 68 66 66 58 61 66 68 67 61 63 67 70 72 74 66 63 60 65 63 64 64 60 63 62 62 66 69 70 75 72 60 56
103 103 102 108 108 98 87 94 97 81 73 68 64 65 66 72 73 72 62 61 56 63 72 79 82 75 67 71 78 56 47 64 69 68 64 59 60 62 61 61 68 66 61
124 117 120 117 120 111 102 96 110 109 92 92 68 61 58 68 71 82 89 82 72 62 57 64 67 58 23 42 73 92 67 37 35 61 66 68 59 57 51 56 69 70 70
133 133 137 135 121 119 118 99 90 98 93 86 86 55 44 67 69 61 71 91 98 94 88 79 72 63 6 355 26 70 101 108 14 29 58 68 72 62 50 47 55 66 73
142 139 144 137 124 123 127 123 119 110 124 146 135 121 73 65 65 64 70 71 87 84 101 103 85 62 50 3 351 14 73 120 111 30 19 42 64 68 63 56 51 53 69
138 137 144 137 127 122 122 132 140 138 145 130 114 115 95 68 69 64 71 64 87 93 101 86 80 67 55 47 18 5 32 33 72 120 81 10 28 39 61 73 70 60 71
132 137 141 133 126 129 136 146 156 157 137 120 116 126 120 90 90 100 109 82 81 105 100 95 98 89 67 44 41 43 53 52 74 95 115 70 38 0 52 76 80 81 78
Height
1506 1505 1503 1502 1501 1500 1498 1497 1496 1495 1494 1493 1493 1493 1493 1494 1495 1496 1497 1498 1499 1500 1501 1502 1502 1503 1504 1505 1506 1507 1507 1508 1509 1510 1511 1512 1514 1514 1516 1516 1517 1517 1517
1507 1506 1504 1503 1502 1501 1500 1499 1498 1497 1496 1495 1493 1492 1494 1495 1497 1498 1499 1500 1501 1502 1502 1503 1503 1504 1505 1507 1507 1508 1509 1509 1511 1512 1513 1514 1515 1516 1517 1517 1518 1518 1518
1508 1506 1505 1505 1504 1503 1502 1501 1500 1499 1498 1496 1494 1493 1495 1497 1499 1500 1501 1501 1502 1503 1504 1504 1505 1506 1507 1508 1509 1509 1510 1511 1512 1514 1514 1515 1516 1517 1517 1518 1518 1519 1519
1509 1507 1506 1506 1505 1504 1504 1503 1502 1501 1500 1499 1497 1497 1498 1500 1501 1502 1502 1503 1504 1505 1505 1506 1507 1508 1509 1510 1510 1511 1512 1513 1514 1515 1515 1515 1516 1517 1518 1519 1519 1520 1520
1510 1509 1508 1507 1507 1506 1506 1505 1504 1504 1503 1502 1501 1501 1501 1502 1503 1504 1504 1505 1506 1506 1507 1507 1508 1509 1510 1511 1512 1512 1513 1514 1515 1515 1516 1517 1517 1518 1519 1519 1520 1520 1521
1511 1510 1509 1509 1508 1508 1508 1507 1507 1506 1505 1505 1505 1505 1505 1505 1505 1506 1506 1507 1507 1508 1508 1509 1510 1510 1511 1512 1513 1514 1514 1515 1516 1516 1517 1518 1518 1519 1519 1520 1520 1521 1521
1513 1512 1511 1511 1510 1510 1510 1509 1509 1508 1508 1507 1507 1507 1508 1508 1508 1508 1508 1508 1509 1509 1510 1510 1511 1512 1512 1513 1514 1515 1515 1516 1517 1517 1518 1518 1519 1519 1520 1520 1521 1521 1521
1514 1513 1513 1512 1512 1512 1512 1512 1511 1511 1510 1510 1510 1510 1510 1510 1510 1510 1510 1510 1511 1511 1511 1512 1513 1513 1514 1515 1516 1516 1517 1518 1518 1518 1519 1519 1519 1520 1520 1521 1521 1521 1522
1515 1515 1515 1514 1514 1514 1514 1514 1514 1513 1513 1513 1513 1512 1512 1512 1512 1512 1512 1512 1512 1513 1513 1514 1514 1515 1516 1516 1517 1518 1518 1519 1519 1519 1520 1520 1520 1520 1520 1521 1521 1522 1522
1517 1517 1517 1517 1516 1516 1516 1516 1516 1516 1516 1515 1515 1515 1514 1514 1513 1513 1513 1514 1514 1515 1515 1515 1516 1517 1518 1518 1519 1520 1520 1520 1520 1520 1520 1520 1520 1521 1521 1521 1522 1522 1522
1518 1519 1519 1519 1518 1518 1518 1518 1518 1518 1518 1517 1517 1517 1516 1516 1515 1515 1515 1516 1516 1517 1517 1518 1518 1519 1520 1520 1521 1521 1521 1521 1521 1521 1521 1522 1521 1521 1521 1522 1522 1522 1522
1520 1520 1520 1520 1520 1520 1520 1520 1520 1520 1520 1520 1519 1519 1519 1518 1518 1517 1517 1517 1518 1519 1519 1520 1520 1521 1522 1522 1522 1523 1523 1523 1523 1523 1523 1523 1522 1522 1522 1522 1522 1522 1522
1521 1521 1522 1522 1522 1522 1522 1522 1522 1522 1522 1522 1522 1522 1521 1521 1520 1519 1519 1519 1520 1521 1522 1522 1523 1523 1524 1524 1524 1524 1524 1524 1524 1524 1524 1524 1523 1523 1523 1523 1523 1523 1522
1521 1522 1523 1523 1523 1523 1523 1523 1523 1523 1524 1524 1523 1523 1523 1523 1522 1522 1522 1522 1522 1523 1523 1524 1524 1525 1526 1526 1526 1526 1526 1525 1525 1525 1525 1525 1524 1524 1524 1524 1524 1523 1523
1522 1523 1523 1523 1524 1524 1524 1524 1524 1525 1525 1525 1525 1525 1525 1524 1524 1524 1524 1525 1525 1525 1526 1526 1526 1527 1527 1527 1528 1527 1527 1527 1527 1527 1526 1526 1526 1525 1525 1525 1524 1524 1523
1522 1523 1523 1524 1524 1524 1524 1525 1525 1526 1526 1526 1526 1526 1526 1526 1526 1526 1526 1527 1527 1527 1528 1528 1528 1528 1529 1529 1529 1529 1529 1529 1529 1528 1528 1527 1527 1526 1526 1525 1525 1524 1524
1522 1522 1523 1524 1524 1524 1525 1525 1526 1526 1527 1527 1527 1527 1527 1527 1527 1527 1528 1528 1529 1529 1530 1530 1530 1530 1530 1530 1530 1530 1530 1530 1530 1530 1530 1529 1528 1527 1527 1526 1526 1525 1525
1522 1522 1523 1524 1524 1525 1525 1526 1526 1527 1527 1528 1528 1528 1529 1529 1529 1529 1529 1530 1530 1531 1531 1531 1531 1531 1531 1532 1532 1532 1532 1532 1532 1531 1531 1530 1530 1529 1528 1528 1527 1526 1526
1521 1522 1523 1524 1524 1525 1525 1526 1526 1527 1528 1528 1529 1529 1530 1530 1530 1530 1531 1531 1532 1532 1532 1532 1532 1532 1533 1533 1533 1533 1533 1533 1533 1533 1532 1532 1531 1530 1530 1529 1528 1528 1527
1521 1522 1522 1523 1524 1525 1525 1526 1527 1528 1528 1528 1529 1530 1530 1531 1531 1531 1531 1532 1532 1533 1533 1533 1533 1534 1534 1534 1534 1534 1534 1534 1534 1534 1533 1533 1533 1532 1531 1530 1529 1529 1528
1521 1521 1522 1523 1524 1524 1525 1526 1527 1528 1528 1529 1530 1530 1531 1531 1532 1532 1532 1533 1533 1533 1534 1534 1534 1534 1535 1535 1535 1535 1535 1535 1535 1535 1535 1534 1534 1533 1532 1531 1531 1530 1529
1520 1521 1522 1523 1523 1524 1525 1526 1527 1528 1529 1529 1530 1530 1531 1532 1532 1532 1533 1533 1533 1534 1534 1534 1535 1535 1535 1535 1536 1535 1536 1537 1536 1537 1536 1535 1535 1534 1533 1532 1532 1531 1530
1520 1521 1522 1522 1523 1524 1525 1526 1527 1528 1529 1529 1530 1531 1531 1532 1532 1532 1533 1533 1534 1534 1534 1534 1535 1535 1535 1536 1536 1536 1536 1536 1537 1538 1537 1536 1536 1535 1534 1533 1533 1532 1531
1519 1520 1521 1522 1523 1523 1524 1525 1526 1527 1528 1529 1530 1531 1531 1532 1532 1532 1533 1533 1533 1534 1534 1534 1535 1535 1535 1535 1536 1536 1536 1536 1537 1537 1538 1537 1536 1535 1535 1534 1533 1533 1532
1518 1519 1520 1521 1522 1523 1524 1525 1526 1527 1528 1529 1529 1530 1531 1531 1532 1532 1532 1533 1533 1533 1534 1534 1534 1535 1535 1535 1535 1536 1536 1536 1537 1537 1537 1537 1537 1536 1535 1535 1534 1533 1532
1516 1518 1519 1520 1521 1522 1523 1524 1525 1526 1527 1527 1528 1529 1530 1530 1531 1531 1531 1532 1532 1532 1533 1533 1534 1534 1534 1535 1535 1535 1536 1536 1536 1536 1536 1536 1536 1536 1536 1535 1534 1533 1533